Volver al catálogo

GLOBAL-13

ActivoComunicacionesVLEO
NORAD 49773·PAYLOAD·🇺🇸 United States

Lanzado Dec 2, 2021 desde Cape Canaveral Space Force Station

Loading…

Próximos Pases (próximas 24 horas)

TLE

EnvejeciendoSource: Space-Track

Época: Sep 13, 2026, 15:46 UTC

1 49773U 21115BB  26256.65742494  .00018144  00000-0  33490-3 0  9992
2 49773  53.1984 353.0219 0003163  50.2176 309.9112 15.49189533269469

Sigue GLOBAL-13 en tiempo real con AllMySat

Download on the App Store